Terminal Aerodrome Forecast
Issued by NWS

Home | Current Version | Previous Version | Text Only | Print | Product List | Glossary On
Versions: 1 2 3 4 5 6 7 8 9 10 11 12
000
FTUS46 KHNX 220500
TAFVIS
TAF
KVIS 220520Z 2206/2306 31009KT P6SM SCT150
     FM221000 31004KT P6SM FEW200
     FM230000 31007KT P6SM FEW200=

USA.gov is the U.S. government's official web portal to all federal, state and local government web resources and services.